Overview Statistics Trail Chart Weather Telemetry Raw packets
 

This is the latest recevied weather packets stored in our database for station/object N1JOV-7. If no packets are shown the sender has not sent any weather packets the latest 10 day(s).

<< 36 37 38 39 40 41 42 >>
Time Temp. Humidity Pressure Rain* Wind** Luminosity Snow
1788087661 13.89° C 99% 1018.9 hPa 0 mm - - -
1788087061 13.33° C 99% 1019.1 hPa 0 mm - - -
1788086462 13.33° C 99% 1019.1 hPa 0 mm - - -
1788085862 12.78° C 99% 1019.2 hPa 0 mm - - -
1788085262 12.78° C 99% 1019.4 hPa 0 mm - - -
1788084662 12.78° C 99% 1019.5 hPa 0 mm - - -
1788084062 13.33° C 99% 1019.6 hPa 0 mm - - -
1788083461 12.78° C 99% 1019.7 hPa 0 mm - - -
1788082861 12.78° C 99% 1019.7 hPa 0 mm - - -
1788082261 12.78° C 99% 1019.8 hPa 0 mm - - -
1788081661 12.78° C 99% 1019.7 hPa 0 mm - - -
1788081061 12.78° C 99% 1019.5 hPa 0 mm - - -
1788080461 13.33° C 99% 1019.6 hPa 0 mm - - -
1788079862 13.33° C 99% 1019.6 hPa 0 mm - - -
1788079262 12.22° C 99% 1019.7 hPa 0 mm - - -
1788078662 12.22° C 99% 1019.7 hPa 0 mm - - -
1788078062 12.78° C 99% 1019.5 hPa 0 mm - - -
1788077462 12.22° C 99% 1019.5 hPa 0 mm - - -
1788076861 12.22° C 99% 1019.8 hPa 0 mm - - -
1788076261 12.78° C 98% 1019.7 hPa 0 mm - - -
1788075661 12.22° C 98% 1019.9 hPa 0 mm - - -
1788075061 12.22° C 98% 1019.9 hPa 0 mm - - -
1788074466 12.22° C 98% 1019.7 hPa 0 mm - - -
1788073862 11.67° C 98% 1019.9 hPa 0 mm - - -
1788073262 11.67° C 98% 1019.9 hPa 0 mm - - -

* Rain latest hour (hover to see other rain measurements)
** Current wind speed in m/s (hover to see current wind gust speed)